Regional Weather Roundup
Issued by NWS Albany, NY

Home | Current Version | Previous Version | Text Only | Print | Product List | Glossary On
Versions: 1 2 3 4 5 6 7 8 9 10 11 12 13 14 15 16 17 18 19 20 21 22 23 24 25 26 27
000
ASUS41 KALY 210210
RWRALY

NEW YORK STATE HOURLY WEATHER ROUNDUP
NATIONAL WEATHER SERVICE ALBANY NY
900 PM EST MON FEB 20 2017

NOTE: "FAIR" INDICATES FEW OR NO CLOUDS BELOW 12,000 FEET WITH NO
SIGNIFICANT WEATHER AND/OR NO OBSTRUCTIONS TO VISIBILITY.

NYZ032-033-038>043-046>054-057>066-NYZ062>081-082-084-210300-
EAST


CITY           SKY/WX    TMP DP  RH WIND       PRES   REMARKS
ALBANY         CLEAR     31  13  47 N6        30.39S WCI  25
GLENS FALLS    CLEAR     25  15  66 CALM      30.40R
POUGHKEEPSIE   CLEAR     32  19  58 CALM      30.35R
NEWBURGH       CLEAR     36  19  51 NE8       30.36R WCI  29
MONTGOMERY     CLEAR     34  20  56 N5        30.33R WCI  30
WHITE PLAINS   CLEAR     39  15  37 N10       30.32R WCI  32
ISLIP          CLEAR     39  18  42 N9        30.32R WCI  33
NEW YORK CITY  PTCLDY    44  14  29 NE15      30.33R
CENTRAL PARK   CLEAR     43  12  28 NE12G20   30.35R
$$

NYZ005>009-017-018-044>046-055-056-210300-
CENTRAL


CITY           SKY/WX    TMP DP  RH WIND       PRES   REMARKS
FULTON         CLOUDY    27  16  63 CALM      30.37S
SYRACUSE       CLOUDY    26  17  68 CALM      30.37S
ROME           CLOUDY    25  18  74 CALM      30.38S
ELMIRA         CLOUDY    27  18  69 CALM      30.34R
BINGHAMTON     CLOUDY    28  15  58 NE5       30.29S WCI  23
MONTICELLO     CLEAR     30  12  47 N3        30.32R
$$

NYZ026>034-041>043-087-210300-
NORTH


CITY           SKY/WX    TMP DP  RH WIND       PRES   REMARKS
WATERTOWN      CLOUDY    23  16  74 CALM      30.39S
FORT DRUM      NOT AVBL
OGDENSBURG     FAIR      18  15  86 CALM      30.40S
MASSENA        CLOUDY    19  15  84 CALM      30.42S
SARANAC LAKE   CLOUDY    15   9  76 CALM      30.31S
PLATTSBURGH    CLEAR     24  16  71 CALM      30.41S
$$

NYZ001>004-010>016-019>021-085-210300-
WEST


CITY           SKY/WX    TMP DP  RH WIND       PRES   REMARKS
NIAGARA FALLS  CLOUDY    32  19  58 E8        30.32S WCI  25
BUFFALO        CLOUDY    32  21  64 E9        30.32S WCI  24
DUNKIRK        CLOUDY    33  26  75 NE5       30.28S WCI  29
JAMESTOWN      CLOUDY    39  19  45 E3        30.24S
WELLSVILLE     CLOUDY    34  17  50 E5        30.28R WCI  30
ROCHESTER      CLOUDY    31  15  52 SE5       30.37R WCI  26
PENN YAN       CLOUDY    27  16  63 CALM      30.35R
$$

             KEY
       WCI = WIND CHILL INDEX
       VSB = VISIBILITY
       HX  = HEAT INDEX
$$




USA.gov is the U.S. government's official web portal to all federal, state and local government web resources and services.